Weather History for Beaufort, SC

Change the Weather History Date:

Tuesday, November 20, 2012

  Actual Average (KNBC) Record (KNBC)
Temperature  
Mean Temperature 57 °F -  
Max Temperature 66 °F 69 °F 83 °F (1945)
Min Temperature 48 °F 51 °F 24 °F (1951)
Degree Days  
Heating Degree Days 8    
Growing Degree Days 7 (Base 50)    
Moisture  
Dew Point 47 °F    
Average Humidity 74    
Maximum Humidity 88    
Minimum Humidity 46    
Precipitation  
Precipitation 0.00 in - - ()
Sea Level Pressure  
Sea Level Pressure 30.09 in    
Wind  
Wind Speed 7 mph (North)    
Max Wind Speed 13 mph    
Max Gust Speed 17 mph    
Visibility 8 miles    
Events      
Averages and records for this station are not official NWS values.
T = Trace of Precipitation, MM = Missing Value Source: NWS Daily Summary

Daily Weather History Graph

Daily Weather History Graph

Search for Another Location

Airport:

Trip Planner

Search our weather history database for the weather conditions in past years. The results will help you decide how hot, cold, wet, or windy it might be!

Date:

Astronomy

Nov. 20, 2012 Rise Set
Actual Time 6:56 AM EST 5:19 PM EST
Civil Twilight 6:30 AM EST 5:45 PM EST
Nautical Twilight 6:00 AM EST 6:15 PM EST
Astronomical Twilight 5:31 AM EST 6:44 PM EST
Moon 12:42 PM EST (11/20) No Moon Set
Length of Visible Light 11h 15m
Length of Day
10h 22m
Waxing Crescent, 51% of the Moon is Illuminated
Nov 20
Waxing Crescent
Nov 28
Full
Dec 6
Last Quarter
Dec 13
New
Dec 20
First Quarter

Hourly Weather History & Observations

Time (EST) Temp. Dew Point Humidity Pressure Visibility Wind Dir Wind Speed Gust Speed Precip Events Conditions
12:15 AM 53.6 °F 50.0 °F 88% 30.11 in 10.0 mi NW 4.6 mph - N/A   Clear
12:35 AM 53.6 °F 50.0 °F 88% 30.11 in 10.0 mi NW 8.1 mph - N/A   Clear
12:55 AM 53.6 °F 50.0 °F 88% 30.11 in 10.0 mi NW 8.1 mph - N/A   Clear
1:15 AM 53.6 °F 50.0 °F 88% 30.11 in 7.0 mi NNW 10.4 mph - N/A   Clear
1:35 AM 53.6 °F 50.0 °F 88% 30.10 in 10.0 mi NNW 9.2 mph - N/A   Clear
1:55 AM 53.6 °F 50.0 °F 88% 30.10 in 10.0 mi North 8.1 mph - N/A   Clear
2:15 AM 53.6 °F 48.2 °F 82% 30.10 in 10.0 mi NNW 8.1 mph - N/A   Clear
2:35 AM 53.6 °F 46.4 °F 77% 30.09 in 10.0 mi North 8.1 mph - N/A   Clear
2:55 AM 51.8 °F 46.4 °F 82% 30.09 in 10.0 mi North 8.1 mph - N/A   Clear
3:15 AM 51.8 °F 46.4 °F 82% 30.09 in 10.0 mi NNW 8.1 mph - N/A   Clear
3:35 AM 51.8 °F 46.4 °F 82% 30.09 in 10.0 mi North 6.9 mph - N/A   Clear
6:55 AM 48.2 °F 44.6 °F 87% 30.13 in 7.0 mi North 6.9 mph - N/A   Clear
7:15 AM 48.2 °F 44.6 °F 87% 30.14 in 5.0 mi North 5.8 mph - N/A   Clear
7:35 AM 48.2 °F 44.6 °F 87% 30.13 in 7.0 mi North 6.9 mph - N/A   Clear
7:55 AM 50.0 °F 44.6 °F 82% 30.13 in 7.0 mi North 6.9 mph - N/A   Clear
8:15 AM 50.0 °F 44.6 °F 82% 30.14 in 5.0 mi North 8.1 mph - N/A   Haze
8:35 AM 51.8 °F 44.6 °F 76% 30.15 in 5.0 mi North 9.2 mph - N/A   Haze
8:55 AM 51.8 °F 44.6 °F 76% 30.14 in 4.0 mi North 10.4 mph - N/A   Haze
9:15 AM 51.8 °F 44.6 °F 76% 30.14 in 7.0 mi North 5.8 mph - N/A   Clear
9:35 AM 53.6 °F 44.6 °F 72% 30.14 in 7.0 mi North 9.2 mph - N/A   Clear
9:55 AM 53.6 °F 44.6 °F 72% 30.14 in 5.0 mi NNW 4.6 mph - N/A   Haze
10:15 AM 55.4 °F 46.4 °F 72% 30.14 in 7.0 mi North 6.9 mph - N/A   Clear
10:35 AM 57.2 °F 46.4 °F 67% 30.14 in 7.0 mi NNW 8.1 mph - N/A   Clear
10:55 AM 59.0 °F 46.4 °F 63% 30.13 in 5.0 mi NNW 6.9 mph - N/A   Haze
11:15 AM 59.0 °F 46.4 °F 63% 30.12 in 7.0 mi NE 6.9 mph - N/A   Clear
11:35 AM 59.0 °F 46.4 °F 63% 30.11 in 7.0 mi NNW 6.9 mph - N/A   Clear
11:55 AM 60.8 °F 46.4 °F 59% 30.10 in 10.0 mi NNE 8.1 mph - N/A   Clear
12:15 PM 62.6 °F 46.4 °F 55% 30.08 in 5.0 mi North 8.1 mph - N/A   Haze
12:35 PM 62.6 °F 48.2 °F 59% 30.07 in 7.0 mi NNW 12.7 mph 17.3 mph N/A   Clear
12:55 PM 62.6 °F 48.2 °F 59% 30.07 in 7.0 mi NNW 9.2 mph - N/A   Clear
1:15 PM 64.4 °F 46.4 °F 52% 30.06 in 7.0 mi North 11.5 mph - N/A   Clear
1:55 PM 66.2 °F 46.4 °F 49% 30.05 in 10.0 mi North 8.1 mph - N/A   Clear
2:15 PM 66.2 °F 46.4 °F 49% 30.04 in 7.0 mi North 5.8 mph - N/A   Clear
2:35 PM 66.2 °F 46.4 °F 49% 30.04 in 7.0 mi North 8.1 mph - N/A   Clear
3:15 PM 66.2 °F 44.6 °F 46% 30.04 in 7.0 mi North 11.5 mph - N/A   Clear
3:35 PM 64.4 °F 44.6 °F 49% 30.04 in 7.0 mi North 9.2 mph - N/A   Clear
3:55 PM 64.4 °F 46.4 °F 52% 30.04 in 7.0 mi North 4.6 mph - N/A   Clear
4:15 PM 64.4 °F 46.4 °F 52% 30.04 in 7.0 mi North 5.8 mph - N/A   Clear
4:35 PM 62.6 °F 48.2 °F 59% 30.04 in 7.0 mi North 5.8 mph - N/A   Clear
4:55 PM 62.6 °F 48.2 °F 59% 30.04 in 7.0 mi North 5.8 mph - N/A   Clear
5:15 PM 60.8 °F 50.0 °F 68% 30.04 in 7.0 mi NNE 5.8 mph - N/A   Clear
5:35 PM 60.8 °F 50.0 °F 68% 30.04 in 10.0 mi NNE 4.6 mph - N/A   Clear
5:55 PM 59.0 °F 50.0 °F 72% 30.05 in 7.0 mi Calm Calm - N/A   Clear
6:15 PM 57.2 °F 50.0 °F 77% 30.05 in 7.0 mi Calm Calm - N/A   Clear
6:35 PM 55.4 °F 50.0 °F 82% 30.05 in 10.0 mi Calm Calm - N/A   Clear
6:55 PM 55.4 °F 50.0 °F 82% 30.06 in 7.0 mi Calm Calm - N/A   Clear
7:15 PM 53.6 °F 50.0 °F 88% 30.06 in 10.0 mi Calm Calm - N/A   Clear
7:35 PM 53.6 °F 50.0 °F 88% 30.06 in 10.0 mi Calm Calm - N/A   Clear
7:55 PM 53.6 °F 50.0 °F 88% 30.07 in 10.0 mi Calm Calm - N/A   Clear
8:15 PM 53.6 °F 50.0 °F 88% 30.06 in 7.0 mi North 3.5 mph - N/A   Clear
8:35 PM 53.6 °F 50.0 °F 88% 30.07 in 7.0 mi North 3.5 mph - N/A   Clear
8:55 PM 53.6 °F 48.2 °F 82% 30.07 in 10.0 mi North 3.5 mph - N/A   Clear
9:15 PM 53.6 °F 48.2 °F 82% 30.07 in 10.0 mi North 5.8 mph - N/A   Clear
9:35 PM 53.6 °F 48.2 °F 82% 30.07 in 10.0 mi North 3.5 mph - N/A   Clear
9:55 PM 53.6 °F 48.2 °F 82% 30.08 in 10.0 mi North 3.5 mph - N/A   Clear
10:15 PM 53.6 °F 46.4 °F 77% 30.08 in 10.0 mi North 3.5 mph - N/A   Clear
10:35 PM 51.8 °F 46.4 °F 82% 30.08 in 10.0 mi Calm Calm - N/A   Clear
10:55 PM 50.0 °F 46.4 °F 87% 30.08 in 10.0 mi North 3.5 mph - N/A   Clear
11:15 PM 51.8 °F 48.2 °F 88% 30.07 in 5.0 mi North 3.5 mph - N/A   Clear
11:35 PM 50.0 °F 46.4 °F 87% 30.07 in 7.0 mi Calm Calm - N/A   Clear
11:55 PM 50.0 °F 46.4 °F 87% 30.08 in 7.0 mi NNW 3.5 mph - N/A   Clear